This is the latest recevied weather packets stored in our database for station/object KI5RAB. If no packets are shown the sender has not sent any weather packets the latest 10 day(s).
| Time | Temp. | Humidity | Pressure | Rain* | Wind** | Luminosity | Snow |
|---|---|---|---|---|---|---|---|
| 1788399367 | 30.56° C | 60% | 1014.4 hPa | 0 mm | - | 0 W/m² | - |
| 1788399062 | 30.56° C | 60% | 1014.3 hPa | 0 mm | - | 0 W/m² | - |
| 1788398760 | 31.11° C | 60% | 1014.3 hPa | 0 mm | - | 0 W/m² | - |
| 1788398459 | 31.11° C | 59% | 1014.2 hPa | 0 mm | - | 0 W/m² | - |
| 1788398154 | 31.67° C | 58% | 1014 hPa | 0 mm | - | 0 W/m² | - |
| 1788397854 | 31.67° C | 58% | 1014.1 hPa | 0 mm | - | 0 W/m² | - |
| 1788397550 | 31.67° C | 57% | 1014.1 hPa | 0 mm | - | 1 W/m² | - |
| 1788397248 | 32.22° C | 55% | 1013.9 hPa | 0 mm | - | 1 W/m² | - |
| 1788396943 | 32.78° C | 54% | 1014.1 hPa | 0 mm | - | 3 W/m² | - |
| 1788396638 | 32.78° C | 53% | 1014.2 hPa | 0 mm | - | 5 W/m² | - |
| 1788396338 | 33.33° C | 52% | 1014.1 hPa | 0 mm | - | 8 W/m² | - |
| 1788396034 | 33.89° C | 49% | 1014.1 hPa | 0 mm | - | 11 W/m² | - |
| 1788395729 | 34.44° C | 49% | 1014 hPa | 0 mm | - | 15 W/m² | - |
| 1788395425 | 35° C | 48% | 1014.3 hPa | 0 mm | - | 18 W/m² | - |
| 1788395119 | 35° C | 45% | 1014.1 hPa | 0 mm | - | 21 W/m² | - |
| 1788394814 | 35.56° C | 45% | 1014.3 hPa | 0 mm | - | 24 W/m² | - |
| 1788394514 | 36.67° C | 43% | 1014 hPa | 0 mm | - | 27 W/m² | - |
| 1788394213 | 37.22° C | 42% | 1014.1 hPa | 0 mm | - | 29 W/m² | - |
| 1788393909 | 37.78° C | 41% | 1014.2 hPa | 0 mm | - | 32 W/m² | - |
| 1788393608 | 37.22° C | 40% | 1014.3 hPa | 0 mm | - | 34 W/m² | - |
| 1788393301 | 37.78° C | 40% | 1014.2 hPa | 0 mm | - | 36 W/m² | - |
| 1788392996 | 37.22° C | 42% | 1014.4 hPa | 0 mm | - | 38 W/m² | - |
| 1788392691 | 37.78° C | 41% | 1014.4 hPa | 0 mm | - | 70 W/m² | - |
| 1788392390 | 37.78° C | 41% | 1014.4 hPa | 0 mm | - | 81 W/m² | - |
| 1788392089 | 37.78° C | 39% | 1014.4 hPa | 0 mm | - | 44 W/m² | - |
* Rain latest hour (hover to see other rain measurements)
** Current wind speed in m/s (hover to see current wind gust speed)